Location: Oberwangen
(47.4286°N, 8.9679°E)
Time: 09:03:15
(UTC+00:00)

Cosmos 1447 Rocket - Pass Details

Date: 23 October 2021
Orbit: 953 x 996 km, 82.9° (Epoch: 27 November)

Event Time Altitude Azimuth Distance (km) Brightness Sun altitude
Rises 18:24:01 0° 350° (N) 3,646 7.7 -21.3°
Reaches altitude 10° 18:26:32 10° 350° (N) 2,694 7.0 -21.7°
Maximum altitude 18:32:41 82° 264° (W) 969 4.5 -22.8°
Drops below altitude 10° 18:38:49 10° 177° (S) 2,679 6.7 -23.8°
Sets 18:41:18 0° 177° (S) 3,625 7.4 -24.2°
